Breckenridge, TX

7:40 PM CST on January 23, 2017 (GMT -0600)
Stephens County

Weather History for KBKD - December, 2013

Change the Weather History Date:

Tuesday, December 31, 2013

  Actual Average (KMWL) Record (KMWL)
Temperature  
Mean Temperature 42 °F -  
Max Temperature 60 °F 55 °F 78 °F (2011)
Min Temperature 23 °F 32 °F 21 °F (2013)
Degree Days  
Heating Degree Days 24    
Moisture  
Dew Point 26 °F    
Average Humidity 58    
Maximum Humidity 87    
Minimum Humidity 29    
Precipitation  
Precipitation 0.00 in - - ()
Sea Level Pressure  
Sea Level Pressure 30.29 in    
Wind  
Wind Speed 5 mph (South)    
Max Wind Speed 16 mph    
Max Gust Speed 22 mph    
Visibility 10 miles    
Events      
Averages and records for this station are not official NWS values.
T = Trace of Precipitation, MM = Missing Value Source: NWS Daily Summary

Daily Weather History Graph

Daily Weather History Graph

Search for Another Location

Airport or City:

Trip Planner

Search our weather history database for the weather conditions in past years. The results will help you decide how hot, cold, wet, or windy it might be!

Date:

Astronomy

Dec. 31, 2013 Rise Set
Actual Time 7:37 AM CST 5:39 PM CST
Civil Twilight 7:10 AM CST 6:07 PM CST
Nautical Twilight 6:39 AM CST 6:37 PM CST
Astronomical Twilight 6:09 AM CST 7:07 PM CST
Moon 6:34 AM CST (12/31) 5:15 PM CST (12/31)
Length of Visible Light 10h 56m
Length of Day
10h 02m
Waning Crescent, 1% of the Moon is Illuminated
Dec 31
Waning Crescent
Jan 1
New
Jan 7
First Quarter
Jan 15
Full
Jan 23
Last Quarter

Hourly Weather History & Observations

Time (CST) Temp. Windchill Dew Point Humidity Pressure Visibility Wind Dir Wind Speed Gust Speed Precip Events Conditions
12:15 AM 30.6 °F - 23.2 °F 74% 30.40 in 10.0 mi Calm Calm - N/A   Clear
12:35 AM 28.4 °F - 22.3 °F 78% 30.40 in 10.0 mi Calm Calm - N/A   Clear
12:55 AM 27.5 °F - 22.1 °F 80% 30.39 in 10.0 mi Calm Calm - N/A   Clear
1:15 AM 27.3 °F - 21.6 °F 79% 30.39 in 10.0 mi Calm Calm - N/A   Clear
1:35 AM 26.6 °F - 21.2 °F 80% 30.39 in 10.0 mi Calm Calm - N/A   Clear
1:55 AM 26.6 °F - 21.4 °F 81% 30.38 in 10.0 mi Calm Calm - N/A   Clear
2:15 AM 27.0 °F - 21.6 °F 80% 30.39 in 10.0 mi Calm Calm - N/A   Clear
2:35 AM 26.6 °F 22.6 °F 21.7 °F 82% 30.39 in 10.0 mi South 3.5 mph - N/A   Clear
2:55 AM 27.0 °F - 21.7 °F 81% 30.39 in 10.0 mi Calm Calm - N/A   Clear
3:15 AM 27.3 °F - 22.1 °F 81% 30.39 in 10.0 mi Calm Calm - N/A   Clear
3:35 AM 25.2 °F - 20.7 °F 83% 30.38 in 10.0 mi Calm Calm - N/A   Clear
3:55 AM 25.3 °F - 21.2 °F 84% 30.38 in 10.0 mi Calm Calm - N/A   Clear
4:15 AM 25.3 °F 19.7 °F 21.4 °F 85% 30.38 in 10.0 mi SSW 4.6 mph - N/A   Clear
4:35 AM 25.0 °F 19.3 °F 21.6 °F 87% 30.37 in 10.0 mi SSW 4.6 mph - N/A   Clear
4:55 AM 25.5 °F 18.7 °F 22.1 °F 87% 30.37 in 10.0 mi South 5.8 mph - N/A   Clear
5:15 AM 25.7 °F 19.0 °F 22.3 °F 87% 30.37 in 10.0 mi South 5.8 mph - N/A   Clear
5:35 AM 26.6 °F 20.0 °F 22.1 °F 83% 30.37 in 10.0 mi South 5.8 mph - N/A   Clear
5:55 AM 26.2 °F 20.7 °F 21.7 °F 83% 30.38 in 10.0 mi SSE 4.6 mph - N/A   Clear
6:15 AM 25.2 °F 19.5 °F 21.0 °F 84% 30.38 in 10.0 mi South 4.6 mph - N/A   Clear
6:35 AM 25.2 °F 20.9 °F 20.8 °F 84% 30.39 in 10.0 mi South 3.5 mph - N/A   Clear
6:55 AM 24.8 °F 16.9 °F 21.2 °F 86% 30.38 in 10.0 mi South 6.9 mph - N/A   Clear
7:15 AM 25.3 °F 21.1 °F 21.6 °F 86% 30.37 in 10.0 mi SSE 3.5 mph - N/A   Clear
7:35 AM 23.9 °F 16.8 °F 20.1 °F 85% 30.38 in 10.0 mi SSE 5.8 mph - N/A   Clear
7:55 AM 26.8 °F 20.2 °F 22.1 °F 83% 30.39 in 10.0 mi SSE 5.8 mph - N/A   Clear
8:15 AM 28.4 °F 22.2 °F 22.8 °F 80% 30.39 in 10.0 mi SSE 5.8 mph - N/A   Clear
8:35 AM 31.1 °F - 24.8 °F 77% 30.39 in 10.0 mi Calm Calm - N/A   Clear
8:55 AM 32.7 °F - 26.8 °F 79% 30.40 in 10.0 mi Calm Calm - N/A   Clear
9:15 AM 35.6 °F - 27.9 °F 73% 30.39 in 10.0 mi North - - N/A   Clear
9:35 AM 38.8 °F - 30.2 °F 71% 30.39 in 10.0 mi Calm Calm - N/A   Clear
9:55 AM 42.6 °F 39.0 °F 28.2 °F 57% 30.40 in 10.0 mi South 5.8 mph - N/A   Clear
10:15 AM 44.6 °F - 28.4 °F 53% 30.40 in 10.0 mi North - - N/A   Clear
10:35 AM 46.2 °F 42.2 °F 27.7 °F 48% 30.40 in 10.0 mi SSE 8.1 mph - N/A   Clear
10:55 AM 47.5 °F - 25.3 °F 42% 30.39 in 10.0 mi South 8.1 mph - N/A   Clear
11:15 AM 49.8 °F - 25.9 °F 39% 30.39 in 10.0 mi South 11.5 mph - N/A   Clear
11:35 AM 50.9 °F - 25.2 °F 37% 30.37 in 10.0 mi SSW 12.7 mph - N/A   Clear
11:55 AM 52.0 °F - 25.5 °F 36% 30.35 in 10.0 mi SSW 9.2 mph - N/A   Clear
12:15 PM 53.4 °F - 25.3 °F 34% 30.33 in 10.0 mi SSW 9.2 mph - N/A   Clear
12:35 PM 54.3 °F - 25.7 °F 33% 30.31 in 10.0 mi SSW 11.5 mph - N/A   Clear
12:55 PM 54.9 °F - 26.1 °F 33% 30.30 in 10.0 mi SSW 9.2 mph - N/A   Clear
1:15 PM 56.8 °F - 26.8 °F 32% 30.29 in 10.0 mi South 5.8 mph - N/A   Clear
1:35 PM 57.2 °F - 26.8 °F 31% 30.27 in 10.0 mi SW 5.8 mph - N/A   Clear
1:55 PM 58.5 °F - 27.1 °F 30% 30.25 in 10.0 mi SSW 10.4 mph - N/A   Clear
2:15 PM 58.8 °F - 27.0 °F 30% 30.25 in 10.0 mi SW 9.2 mph - N/A   Clear
2:35 PM 59.9 °F - 27.3 °F 29% 30.23 in 10.0 mi South 9.2 mph 16.1 mph N/A   Clear
2:55 PM 59.7 °F - 27.3 °F 29% 30.22 in 10.0 mi SSW 8.1 mph - N/A   Clear
3:15 PM 60.3 °F - 27.5 °F 29% 30.21 in 10.0 mi South 10.4 mph - N/A   Clear
3:35 PM 60.3 °F - 27.5 °F 29% 30.21 in 10.0 mi SSW 10.4 mph 16.1 mph N/A   Clear
3:55 PM 60.1 °F - 27.5 °F 29% 30.21 in 10.0 mi SSW 11.5 mph - N/A   Clear
4:15 PM 59.9 °F - 28.0 °F 30% 30.20 in 10.0 mi SSW 11.5 mph - N/A   Clear
4:35 PM 59.2 °F - 27.9 °F 30% 30.20 in 10.0 mi South 13.8 mph 18.4 mph N/A   Clear
4:55 PM 58.3 °F - 27.7 °F 31% 30.20 in 10.0 mi South 11.5 mph - N/A   Clear
5:15 PM 56.5 °F - 27.9 °F 33% 30.20 in 10.0 mi North - - N/A   Clear
5:35 PM 54.1 °F - 28.0 °F 37% 30.19 in 10.0 mi South 9.2 mph - N/A   Clear
5:55 PM 53.6 °F - 28.0 °F 37% 30.19 in 10.0 mi South 9.2 mph - N/A   Clear
6:15 PM 51.8 °F - 28.2 °F 40% 30.19 in 10.0 mi SSE 9.2 mph - N/A   Clear
6:35 PM 50.0 °F - 28.8 °F 44% 30.18 in 10.0 mi SSE 9.2 mph - N/A   Clear
6:55 PM 49.1 °F - 29.1 °F 46% 30.17 in 10.0 mi SSE 10.4 mph - N/A   Clear
7:15 PM 47.8 °F - 29.7 °F 49% 30.18 in 10.0 mi SSE 9.2 mph - N/A   Clear
7:35 PM 47.8 °F - 29.3 °F 49% 30.18 in 10.0 mi SSE 11.5 mph - N/A   Clear
7:55 PM 47.3 °F - 29.7 °F 50% 30.17 in 10.0 mi SSE 10.4 mph - N/A   Clear
8:15 PM 46.4 °F 41.9 °F 29.5 °F 52% 30.18 in 10.0 mi SE 9.2 mph - N/A   Clear
8:35 PM 45.9 °F 40.4 °F 30.0 °F 54% 30.17 in 10.0 mi SSE 11.5 mph - N/A   Clear
8:55 PM 46.2 °F 40.8 °F 30.2 °F 54% 30.16 in 10.0 mi SSE 11.5 mph - N/A   Clear
9:15 PM 46.2 °F 40.1 °F 30.7 °F 55% 30.16 in 10.0 mi SSE 13.8 mph - N/A   Clear
9:35 PM 45.9 °F 39.1 °F 30.7 °F 56% 30.15 in 10.0 mi SSE 16.1 mph - N/A   Clear
9:55 PM 46.0 °F 40.2 °F 30.7 °F 55% 30.15 in 10.0 mi South 12.7 mph 19.6 mph N/A   Clear
10:15 PM 46.8 °F - 30.2 °F 53% 30.15 in 10.0 mi South 13.8 mph 21.9 mph N/A   Clear
10:35 PM 46.8 °F - 30.2 °F 53% 30.13 in 10.0 mi South 13.8 mph 20.7 mph N/A   Clear
10:55 PM 45.9 °F 40.4 °F 30.2 °F 54% 30.13 in 10.0 mi SSE 11.5 mph 16.1 mph N/A   Clear
11:15 PM 45.0 °F 38.9 °F 30.2 °F 56% 30.13 in 10.0 mi South 12.7 mph 18.4 mph N/A   Clear
11:35 PM 44.4 °F 38.6 °F 30.2 °F 57% 30.12 in 10.0 mi South 11.5 mph - N/A   Clear
11:55 PM 43.9 °F 38.3 °F 30.6 °F 59% 30.12 in 10.0 mi South 10.4 mph 16.1 mph N/A   Clear